Weather in Ipatinga

Brazil     19°28′20″S   42°33′21″W
temp.,
°C
wind,
m/s
gust,
m/s
humid.,
%
clouds,
%
prec.,
mm/h
press.,
hPa
HPBL,
m
24 january, mon
mon2400:00+20n019662 0.0 101411
03:00+20n119493 0.0 101452
06:00+20n139629 0.0 1015127
09:00+25nne236985 0.1 10161026
12:00+28ne235996 0.3 10141486
15:00+29ene225166 0.4 10111808
18:00+24ne24765 0.0 1012101
21:00+21nnw11873 0.0 101311
25 january, tue
tue2500:00+20nw11915 0.0 101411
03:00+19n0195100 0.0 101312
06:00+19n1196100 0.0 101526
09:00+25nne226928 0.0 10151015
12:00+29ne234790 0.0 10131656
15:00+30ne224567 0.0 10111872
18:00+25nne237566 0.0 101171
21:00+21n11921 0.0 101321
26 january, wed
wed2600:00+20nne139637 0.0 1014105
03:00+19nne119921 0.1 101320
06:00+19nne119829 0.0 101446
09:00+24nne247359 0.1 1015966
12:00+27nne246233 1.1 10141231
15:00+26ne34775 2.4 1012916
18:00+22nne279583 1.9 1012371
21:00+20n119859 2.0 101216
27 january, thu
thu2700:00+21n149892 0.3 1013124
03:00+19nne149927 0.7 1013120
06:00+19n129928 0.0 101484
09:00+23nne237950 0.1 1015696
12:00+28nne235957 0.1 10121384
15:00+28nne33678 0.9 1010993
18:00+25nne25795 0.3 1010214
21:00+22nnw11925 0.6 101218
28 january, fri
fri2800:00+21nnw11945 0.0 101212
03:00+20nne119831 0.0 101122
06:00+20n119693 0.0 101257
09:00+26nne237031 0.0 1012912
12:00+29ne345928 0.1 10101484
15:00+30nne33589 0.3 10081437
18:00+26n12790 0.2 100846
21:00+22nnw118912 0.2 101011